Weather History for Tupelo, MS

Change the Weather History Date:

Friday, May 24, 2013

  Actual Average Record
Temperature  
Mean Temperature 66 °F 73 °F  
Max Temperature 77 °F 84 °F 94 °F (1958)
Min Temperature 55 °F 62 °F 44 °F (1931)
Degree Days  
Heating Degree Days 0 0  
Month to date heating degree days 58 23  
Since 1 July heating degree days 2960 2955  
Cooling Degree Days 1 8  
Month to date cooling degree days 115 137  
Year to date cooling degree days 178 213  
Growing Degree Days 18 (Base 50)    
Moisture  
Dew Point 52 °F    
Average Humidity 60    
Maximum Humidity 84    
Minimum Humidity 36    
Precipitation  
Precipitation 0.00 in 0.17 in 1.78 in (1997)
Month to date precipitation 6.34 4.42  
Year to date precipitation 28.28 23.46  
Snow  
Snow 0.00 in 0.00 in - ()
Month to date snowfall 0.0 0.0  
Since 1 July snowfall T 2.1  
Snow Depth 0.00 in    
Sea Level Pressure  
Sea Level Pressure 30.20 in    
Wind  
Wind Speed 9 mph (NE)    
Max Wind Speed 18 mph    
Max Gust Speed 23 mph    
Visibility 10 miles    
Events      
T = Trace of Precipitation, MM = Missing Value Source: NWS Daily Summary

Daily Weather History Graph

Daily Weather History Graph

Search for Another Location

Airport:

Trip Planner

Search our weather history database for the weather conditions in past years. The results will help you decide how hot, cold, wet, or windy it might be!

Date:

Astronomy

May. 24, 2013 Rise Set
Actual Time 5:47 AM CDT 7:56 PM CDT
Civil Twilight 5:18 AM CDT 8:25 PM CDT
Nautical Twilight 4:44 AM CDT 9:00 PM CDT
Astronomical Twilight 4:06 AM CDT 9:37 PM CDT
Moon 7:40 PM CDT (5/24) 5:17 AM CDT (5/24)
Length of Visible Light 15h 06m
Length of Day
14h 09m
Full, 100% of the Moon is Illuminated
May 24
Full
May 24
Full
May 31
Last Quarter
Jun 8
New
Jun 16
First Quarter

Hourly Weather History & Observations

Time (CDT) Temp. Dew Point Humidity Pressure Visibility Wind Dir Wind Speed Gust Speed Precip Events Conditions
12:53 AM 66.0 °F 59.0 °F 78% 30.10 in 10.0 mi NE 8.1 mph - N/A   Clear
1:53 AM 66.0 °F 57.0 °F 73% 30.11 in 10.0 mi NE 12.7 mph - N/A   Clear
2:53 AM 64.0 °F 55.0 °F 73% 30.11 in 10.0 mi NE 11.5 mph - N/A   Clear
3:53 AM 62.1 °F 55.9 °F 80% 30.12 in 10.0 mi NE 6.9 mph - N/A   Clear
4:53 AM 61.0 °F 55.9 °F 83% 30.14 in 10.0 mi NNE 9.2 mph - N/A   Clear
5:53 AM 60.1 °F 55.0 °F 83% 30.17 in 10.0 mi NE 10.4 mph - N/A   Clear
6:53 AM 60.1 °F 55.0 °F 83% 30.20 in 10.0 mi NE 10.4 mph - N/A   Clear
7:53 AM 62.1 °F 54.0 °F 75% 30.23 in 10.0 mi NE 12.7 mph - N/A   Partly Cloudy
8:53 AM 64.0 °F 54.0 °F 70% 30.25 in 10.0 mi ENE 11.5 mph - N/A   Clear
9:53 AM 66.0 °F 54.0 °F 65% 30.25 in 10.0 mi NE 10.4 mph - N/A   Clear
10:53 AM 69.1 °F 52.0 °F 54% 30.25 in 10.0 mi NE 13.8 mph 21.9 mph N/A   Clear
11:53 AM 70.0 °F 50.0 °F 49% 30.26 in 10.0 mi NNE 16.1 mph 23.0 mph N/A   Clear
12:53 PM 73.0 °F 48.9 °F 42% 30.25 in 10.0 mi ENE 12.7 mph 17.3 mph N/A   Clear
1:53 PM 75.0 °F 50.0 °F 41% 30.24 in 10.0 mi NE 12.7 mph - N/A   Clear
2:53 PM 77.0 °F 48.9 °F 37% 30.24 in 10.0 mi North 6.9 mph 19.6 mph N/A   Clear
3:53 PM 75.9 °F 48.0 °F 37% 30.24 in 10.0 mi NE 9.2 mph - N/A   Clear
4:53 PM 75.9 °F 46.0 °F 35% 30.22 in 10.0 mi ENE 8.1 mph - N/A   Clear
5:53 PM 75.9 °F 48.9 °F 38% 30.20 in 10.0 mi ENE 12.7 mph - N/A   Clear
6:53 PM 73.9 °F 46.0 °F 37% 30.19 in 10.0 mi East 8.1 mph - N/A   Clear
7:53 PM 70.0 °F 48.9 °F 47% 30.21 in 10.0 mi ENE 5.8 mph - N/A   Clear
8:53 PM 66.9 °F 48.9 °F 52% 30.22 in 10.0 mi East 4.6 mph - N/A   Clear
9:53 PM 62.1 °F 51.1 °F 67% 30.24 in 10.0 mi Calm Calm - N/A   Clear
10:53 PM 60.1 °F 52.0 °F 75% 30.25 in 10.0 mi Calm Calm - N/A   Clear
11:53 PM 57.9 °F 52.0 °F 81% 30.24 in 10.0 mi ENE 3.5 mph - N/A   Clear